Weather History for KMLU - March, 2014

Change the Weather History Date:

Wednesday, March 5, 2014

  Actual Average Record
Temperature  
Mean Temperature 41 °F 55 °F  
Max Temperature 53 °F 66 °F 84 °F (1955)
Min Temperature 29 °F 44 °F 19 °F (1978)
Degree Days  
Heating Degree Days 24 11  
Month to date heating degree days 102 55  
Since 1 July heating degree days 2428 1949  
Cooling Degree Days 0 1  
Month to date cooling degree days 1 3  
Year to date cooling degree days 3 14  
Moisture  
Dew Point 34 °F    
Average Humidity 73    
Maximum Humidity 85    
Minimum Humidity 61    
Precipitation  
Precipitation 0.03 in 0.17 in 2.70 in (1935)
Month to date precipitation 0.52 0.84  
Year to date precipitation 4.95 10.48  
Snow  
Snow 0.00 in - - ()
Month to date snowfall 0.0  
Since 1 July snowfall 0.5  
Snow Depth 0.00 in    
Sea Level Pressure  
Sea Level Pressure 30.13 in    
Wind  
Wind Speed 6 mph (NE)    
Max Wind Speed 13 mph    
Max Gust Speed 16 mph    
Visibility 8 miles    
Events Rain    
T = Trace of Precipitation, MM = Missing Value Source: NWS Daily Summary

Daily Weather History Graph

Daily Weather History Graph

Search for Another Location

Airport or City:

Trip Planner

Search our weather history database for the weather conditions in past years. The results will help you decide how hot, cold, wet, or windy it might be!

Date:

Astronomy

Mar. 05, 2014 Rise Set
Actual Time 6:30 AM CST 6:08 PM CST
Civil Twilight 6:06 AM CST 6:33 PM CST
Nautical Twilight 5:37 AM CST 7:01 PM CST
Astronomical Twilight 5:09 AM CST 7:30 PM CST
Moon 9:13 AM CST (3/5) 10:59 PM CST (3/5)
Length of Visible Light 12h 26m
Length of Day
11h 37m
Waxing Crescent, 23% of the Moon is Illuminated
Mar 5
Waxing Crescent
Mar 8
First Quarter
Mar 16
Full
Mar 23
Last Quarter
Mar 30
New

Hourly Weather History & Observations

Time (CST) Temp. Windchill Dew Point Humidity Pressure Visibility Wind Dir Wind Speed Gust Speed Precip Events Conditions
12:53 AM 30.0 °F 26.5 °F 26.1 °F 85% 30.14 in 9.0 mi East 3.5 mph - N/A   Clear
1:53 AM 30.0 °F - 26.1 °F 85% 30.12 in 8.0 mi Calm Calm - N/A   Clear
2:40 AM 30.2 °F 25.4 °F 26.6 °F 86% 30.13 in 9.0 mi North 4.6 mph - N/A   Mostly Cloudy
2:53 AM 30.9 °F 26.2 °F 27.0 °F 85% 30.14 in 9.0 mi North 4.6 mph - N/A   Overcast
3:53 AM 32.0 °F 26.4 °F 28.0 °F 85% 30.13 in 9.0 mi NE 5.8 mph - N/A   Overcast
4:53 AM 33.1 °F 27.7 °F 28.0 °F 82% 30.14 in 9.0 mi ENE 5.8 mph - N/A   Overcast
5:53 AM 33.1 °F 28.7 °F 28.0 °F 82% 30.14 in 6.0 mi East 4.6 mph - N/A   Haze
6:53 AM 33.1 °F - 28.0 °F 82% 30.15 in 7.0 mi Calm Calm - N/A   Overcast
7:53 AM 35.1 °F 31.0 °F 30.0 °F 82% 30.18 in 4.0 mi North 4.6 mph - N/A   Haze
8:21 AM 35.6 °F 28.6 °F 30.2 °F 81% 30.17 in 6.0 mi North 9.2 mph - N/A   Haze
8:53 AM 36.0 °F 30.3 °F 30.9 °F 82% 30.18 in 7.0 mi NNE 6.9 mph - N/A   Overcast
9:08 AM 35.6 °F 30.7 °F 30.2 °F 81% 30.18 in 7.0 mi North 5.8 mph - N/A   Overcast
9:15 AM 37.4 °F 33.8 °F 30.2 °F 75% 30.18 in 7.0 mi NNE 4.6 mph - N/A   Overcast
9:41 AM 37.4 °F 32.8 °F 30.2 °F 75% 30.17 in 8.0 mi Variable 5.8 mph - N/A   Overcast
9:53 AM 39.0 °F 34.0 °F 32.0 °F 76% 30.16 in 8.0 mi NE 6.9 mph - N/A   Overcast
10:53 AM 41.0 °F 35.8 °F 32.0 °F 70% 30.15 in 8.0 mi ENE 8.1 mph - N/A   Overcast
11:53 AM 43.0 °F 39.5 °F 33.1 °F 68% 30.13 in 9.0 mi East 5.8 mph - N/A   Overcast
12:53 PM 48.0 °F - 35.1 °F 61% 30.10 in 9.0 mi NNE 5.8 mph - N/A   Overcast
1:53 PM 50.0 °F - 37.0 °F 61% 30.09 in 10.0 mi East 5.8 mph - N/A   Partly Cloudy
2:53 PM 52.0 °F - 39.0 °F 61% 30.07 in 10.0 mi East 5.8 mph - N/A   Overcast
3:53 PM 52.0 °F - 39.9 °F 63% 30.07 in 10.0 mi NE 6.9 mph - N/A   Overcast
4:53 PM 52.0 °F - 41.0 °F 66% 30.06 in 10.0 mi ENE 10.4 mph - N/A   Overcast
5:53 PM 50.0 °F - 41.0 °F 71% 30.08 in 10.0 mi ENE 5.8 mph - N/A   Overcast
6:53 PM 48.0 °F - 39.9 °F 74% 30.09 in 10.0 mi ENE 11.5 mph - N/A   Overcast
7:53 PM 46.0 °F 41.4 °F 39.0 °F 76% 30.12 in 10.0 mi NE 9.2 mph - 0.00 in Rain Light Rain
8:53 PM 45.0 °F 40.6 °F 39.0 °F 80% 30.12 in 9.0 mi NE 8.1 mph - 0.00 in   Overcast
9:53 PM 44.1 °F 40.8 °F 39.9 °F 85% 30.12 in 7.0 mi NE 5.8 mph - 0.00 in Rain Light Rain
10:53 PM 43.0 °F 38.2 °F 39.0 °F 86% 30.11 in 6.0 mi NNE 8.1 mph - 0.00 in Rain Light Rain
11:15 PM 42.8 °F 38.6 °F 39.2 °F 87% 30.11 in 3.0 mi North 6.9 mph - 0.02 in Rain Light Rain
11:18 PM 42.8 °F 38.0 °F 39.2 °F 87% 30.11 in 2.5 mi North 8.1 mph - 0.02 in Rain Light Rain
11:31 PM 42.8 °F 37.0 °F 39.2 °F 87% 30.11 in 3.0 mi North 10.4 mph - 0.03 in Rain Light Rain
11:53 PM 41.0 °F 34.7 °F 39.9 °F 96% 30.11 in 3.0 mi North 10.4 mph - 0.03 in Rain Light Rain